Time,TemperatureF,DewpointF,PressureIn,WindDirection,WindDirectionDegrees,WindSpeedMPH,WindSpeedGustMPH,Humidity,HourlyPrecipIn,Conditions,Clouds,dailyrainin,SoftwareType,DateUTC
2013-02-25 00:01:00,49.0,22.0,30.20,NNE,28,1.0,6.0,34,0.00,,,0.00,,2013-02-25 08:01:00,
2013-02-25 00:21:00,49.0,22.0,30.20,ENE,64,0.0,4.0,34,0.00,,,0.00,,2013-02-25 08:21:00,
2013-02-25 00:31:00,49.0,21.0,30.20,NNE,16,0.0,7.0,33,0.00,,,0.00,,2013-02-25 08:31:00,
2013-02-25 00:41:00,49.0,21.0,30.20,NNE,16,0.0,7.0,33,0.00,,,0.00,,2013-02-25 08:41:00,
2013-02-25 00:52:00,50.0,21.0,30.20,NNE,23,3.0,7.0,31,0.00,,,0.00,,2013-02-25 08:52:00,
2013-02-25 01:01:00,46.0,22.0,30.21,NNE,15,2.0,7.0,38,0.00,,,0.00,,2013-02-25 09:01:00,
2013-02-25 01:12:00,46.0,22.0,30.21,NNE,15,2.0,7.0,38,0.00,,,0.00,,2013-02-25 09:12:00,
2013-02-25 01:21:00,47.0,21.0,30.21,NNE,30,0.0,6.0,36,0.00,,,0.00,,2013-02-25 09:21:00,
2013-02-25 01:31:00,48.0,20.0,30.20,East,82,3.0,5.0,32,0.00,,,0.00,,2013-02-25 09:31:00,
2013-02-25 01:41:00,48.0,20.0,30.20,East,82,3.0,5.0,32,0.00,,,0.00,,2013-02-25 09:41:00,
2013-02-25 01:52:00,47.0,22.0,30.20,NE,42,1.0,7.0,37,0.00,,,0.00,,2013-02-25 09:52:00,
2013-02-25 02:01:00,50.0,23.0,30.20,North,5,0.0,7.0,34,0.00,,,0.00,,2013-02-25 10:01:00,
2013-02-25 02:11:00,49.0,20.0,30.19,NE,39,3.0,9.0,32,0.00,,,0.00,,2013-02-25 10:11:00,
2013-02-25 02:21:00,49.0,20.0,30.19,NE,39,3.0,9.0,32,0.00,,,0.00,,2013-02-25 10:21:00,
2013-02-25 02:31:00,47.0,21.0,30.19,NE,36,4.0,8.0,35,0.00,,,0.00,,2013-02-25 10:31:00,
2013-02-25 02:41:00,47.0,21.0,30.19,NE,36,4.0,8.0,35,0.00,,,0.00,,2013-02-25 10:41:00,
2013-02-25 02:52:00,47.0,20.0,30.19,NE,50,0.0,5.0,34,0.00,,,0.00,,2013-02-25 10:52:00,
2013-02-25 03:01:00,49.0,20.0,30.19,NE,53,0.0,5.0,31,0.00,,,0.00,,2013-02-25 11:01:00,
2013-02-25 03:21:00,46.0,19.0,30.18,NNW,346,0.0,4.0,34,0.00,,,0.00,,2013-02-25 11:21:00,
2013-02-25 03:31:00,47.0,21.0,30.19,North,11,2.0,5.0,35,0.00,,,0.00,,2013-02-25 11:31:00,
2013-02-25 03:41:00,47.0,21.0,30.19,North,11,2.0,5.0,35,0.00,,,0.00,,2013-02-25 11:41:00,
2013-02-25 03:52:00,46.0,21.0,30.18,North,5,3.0,4.0,36,0.00,,,0.00,,2013-02-25 11:52:00,
2013-02-25 04:01:00,47.0,20.0,30.18,North,5,3.0,6.0,34,0.00,,,0.00,,2013-02-25 12:01:00,
2013-02-25 04:21:00,47.0,19.0,30.17,NNE,14,3.0,6.0,32,0.00,,,0.00,,2013-02-25 12:21:00,
2013-02-25 04:31:00,48.0,19.0,30.18,North,9,0.0,6.0,31,0.00,,,0.00,,2013-02-25 12:31:00,
2013-02-25 04:41:00,48.0,19.0,30.18,North,9,0.0,6.0,31,0.00,,,0.00,,2013-02-25 12:41:00,
2013-02-25 04:54:00,48.0,20.0,30.18,NE,45,3.0,6.0,32,0.00,,,0.00,,2013-02-25 12:54:00,
2013-02-25 05:01:00,47.0,21.0,30.18,NNE,17,0.0,6.0,35,0.00,,,0.00,,2013-02-25 13:01:00,
2013-02-25 05:21:00,47.0,19.0,30.18,North,350,0.0,3.0,33,0.00,,,0.00,,2013-02-25 13:21:00,
2013-02-25 05:31:00,47.0,19.0,30.18,NNE,29,3.0,4.0,33,0.00,,,0.00,,2013-02-25 13:31:00,
2013-02-25 05:41:00,47.0,19.0,30.18,NNE,29,3.0,4.0,33,0.00,,,0.00,,2013-02-25 13:41:00,
2013-02-25 05:52:00,45.0,19.0,30.18,NNE,29,4.0,5.0,35,0.00,,,0.00,,2013-02-25 13:52:00,
2013-02-25 06:02:00,46.0,19.0,30.18,NE,46,2.0,5.0,33,0.00,,,0.00,,2013-02-25 14:02:00,
2013-02-25 06:21:00,45.0,18.0,30.18,NE,47,3.0,5.0,34,0.00,,,0.00,,2013-02-25 14:21:00,
2013-02-25 06:31:00,46.0,19.0,30.18,NNW,340,0.0,4.0,34,0.00,,,0.00,,2013-02-25 14:31:00,
2013-02-25 06:41:00,46.0,19.0,30.18,NNW,340,0.0,4.0,34,0.00,,,0.00,,2013-02-25 14:41:00,
2013-02-25 06:52:00,45.0,22.0,30.18,NNW,345,1.0,4.0,39,0.00,,,0.00,,2013-02-25 14:52:00,
2013-02-25 07:02:00,44.0,23.0,30.18,NNW,345,0.0,1.0,44,0.00,,,0.00,,2013-02-25 15:02:00,
2013-02-25 07:11:00,44.0,23.0,30.18,NNW,345,0.0,1.0,44,0.00,,,0.00,,2013-02-25 15:11:00,
2013-02-25 07:21:00,44.0,24.0,30.19,NNW,345,0.0,1.0,45,0.00,,,0.00,,2013-02-25 15:21:00,
2013-02-25 07:32:00,47.0,23.0,30.19,NNW,345,0.0,3.0,38,0.00,,,0.00,,2013-02-25 15:32:00,
2013-02-25 07:41:00,47.0,23.0,30.19,NNW,345,0.0,3.0,38,0.00,,,0.00,,2013-02-25 15:41:00,
2013-02-25 07:52:00,46.0,22.0,30.19,North,349,0.0,3.0,39,0.00,,,0.00,,2013-02-25 15:52:00,
2013-02-25 08:01:00,48.0,25.0,30.19,North,360,1.0,3.0,40,0.00,,,0.00,,2013-02-25 16:01:00,
2013-02-25 08:21:00,49.0,25.0,30.19,NNE,22,0.0,3.0,38,0.00,,,0.00,,2013-02-25 16:21:00,
2013-02-25 08:31:00,50.0,26.0,30.19,NNE,22,0.0,1.0,39,0.00,,,0.00,,2013-02-25 16:31:00,
2013-02-25 08:41:00,50.0,26.0,30.19,NNE,22,0.0,1.0,39,0.00,,,0.00,,2013-02-25 16:41:00,
2013-02-25 08:52:00,51.0,26.0,30.19,NNE,22,0.0,1.0,38,0.00,,,0.00,,2013-02-25 16:52:00,
2013-02-25 09:01:00,53.0,28.0,30.19,NNE,21,0.0,1.0,38,0.00,,,0.00,,2013-02-25 17:01:00,
2013-02-25 09:21:00,54.0,28.0,30.17,NNE,22,0.0,0.0,37,0.00,,,0.00,,2013-02-25 17:21:00,
2013-02-25 09:31:00,56.0,30.0,30.17,NNW,340,0.0,0.0,37,0.00,,,0.00,,2013-02-25 17:31:00,
2013-02-25 09:41:00,56.0,30.0,30.17,NNW,340,0.0,0.0,37,0.00,,,0.00,,2013-02-25 17:41:00,
2013-02-25 09:52:00,57.0,30.0,30.17,NNW,333,0.0,1.0,35,0.00,,,0.00,,2013-02-25 17:52:00,
2013-02-25 10:01:00,59.0,31.0,30.16,NNW,333,0.0,1.0,34,0.00,,,0.00,,2013-02-25 18:01:00,
2013-02-25 10:11:00,59.0,31.0,30.16,NNW,333,0.0,1.0,34,0.00,,,0.00,,2013-02-25 18:11:00,
2013-02-25 10:21:00,60.0,30.0,30.17,NW,313,0.0,1.0,32,0.00,,,0.00,,2013-02-25 18:21:00,
2013-02-25 10:32:00,62.0,32.0,30.17,WSW,238,1.0,5.0,32,0.00,,,0.00,,2013-02-25 18:32:00,
2013-02-25 10:41:00,62.0,32.0,30.17,WSW,238,1.0,5.0,32,0.00,,,0.00,,2013-02-25 18:41:00,
2013-02-25 10:52:00,63.0,28.0,30.17,WSW,244,3.0,7.0,26,0.00,,,0.00,,2013-02-25 18:52:00,
2013-02-25 11:01:00,64.0,27.0,30.17,SSW,196,3.0,5.0,25,0.00,,,0.00,,2013-02-25 19:01:00,
2013-02-25 11:11:00,64.0,27.0,30.17,SSW,196,3.0,5.0,25,0.00,,,0.00,,2013-02-25 19:11:00,
2013-02-25 11:21:00,64.0,27.0,30.16,WSW,245,3.0,6.0,25,0.00,,,0.00,,2013-02-25 19:21:00,
2013-02-25 11:31:00,64.0,29.0,30.15,SSW,198,0.0,5.0,27,0.00,,,0.00,,2013-02-25 19:31:00,
2013-02-25 11:41:00,64.0,29.0,30.15,SSW,198,0.0,5.0,27,0.00,,,0.00,,2013-02-25 19:41:00,
2013-02-25 11:52:00,65.0,28.0,30.15,SSW,196,0.0,6.0,25,0.00,,,0.00,,2013-02-25 19:52:00,
2013-02-25 12:01:00,66.0,31.0,30.14,SW,219,2.0,10.0,27,0.00,,,0.00,,2013-02-25 20:01:00,
2013-02-25 12:11:00,66.0,31.0,30.14,SW,219,2.0,10.0,27,0.00,,,0.00,,2013-02-25 20:11:00,
2013-02-25 12:21:00,66.0,29.0,30.13,SSW,211,1.0,6.0,25,0.00,,,0.00,,2013-02-25 20:21:00,
2013-02-25 12:31:00,67.0,27.0,30.13,SW,236,2.0,7.0,22,0.00,,,0.00,,2013-02-25 20:31:00,
2013-02-25 12:41:00,67.0,27.0,30.13,SW,236,2.0,7.0,22,0.00,,,0.00,,2013-02-25 20:41:00,
2013-02-25 12:52:00,67.0,27.0,30.13,WNW,291,1.0,10.0,22,0.00,,,0.00,,2013-02-25 20:52:00,
2013-02-25 13:01:00,67.0,28.0,30.12,NW,319,1.0,6.0,23,0.00,,,0.00,,2013-02-25 21:01:00,
2013-02-25 13:11:00,67.0,28.0,30.12,NW,319,1.0,6.0,23,0.00,,,0.00,,2013-02-25 21:11:00,
2013-02-25 13:21:00,66.0,26.0,30.11,West,277,0.0,4.0,22,0.00,,,0.00,,2013-02-25 21:21:00,
2013-02-25 13:31:00,67.0,27.0,30.11,SW,228,2.0,6.0,22,0.00,,,0.00,,2013-02-25 21:31:00,
2013-02-25 13:41:00,67.0,27.0,30.11,SW,228,2.0,6.0,22,0.00,,,0.00,,2013-02-25 21:41:00,
2013-02-25 13:52:00,67.0,27.0,30.11,WSW,243,2.0,6.0,22,0.00,,,0.00,,2013-02-25 21:52:00,
2013-02-25 14:01:00,67.0,27.0,30.10,SW,229,2.0,6.0,22,0.00,,,0.00,,2013-02-25 22:01:00,
2013-02-25 14:11:00,67.0,27.0,30.10,SW,229,2.0,6.0,22,0.00,,,0.00,,2013-02-25 22:11:00,
2013-02-25 14:21:00,67.0,28.0,30.10,WSW,242,0.0,6.0,23,0.00,,,0.00,,2013-02-25 22:21:00,
2013-02-25 14:31:00,67.0,28.0,30.09,WSW,240,0.0,7.0,23,0.00,,,0.00,,2013-02-25 22:31:00,
2013-02-25 14:41:00,67.0,28.0,30.09,WSW,240,0.0,7.0,23,0.00,,,0.00,,2013-02-25 22:41:00,
2013-02-25 14:52:00,67.0,30.0,30.09,SSW,209,0.0,5.0,25,0.00,,,0.00,,2013-02-25 22:52:00,
2013-02-25 15:01:00,66.0,32.0,30.09,SW,230,1.0,5.0,28,0.00,,,0.00,,2013-02-25 23:01:00,
2013-02-25 15:11:00,66.0,32.0,30.09,SW,230,1.0,5.0,28,0.00,,,0.00,,2013-02-25 23:11:00,
2013-02-25 15:22:00,66.0,33.0,30.09,SW,216,0.0,4.0,29,0.00,,,0.00,,2013-02-25 23:22:00,
2013-02-25 15:31:00,64.0,33.0,30.08,West,272,0.0,5.0,31,0.00,,,0.00,,2013-02-25 23:31:00,
2013-02-25 15:41:00,64.0,33.0,30.08,West,272,0.0,5.0,31,0.00,,,0.00,,2013-02-25 23:41:00,
2013-02-25 15:52:00,65.0,34.0,30.08,SW,230,1.0,4.0,32,0.00,,,0.00,,2013-02-25 23:52:00,
2013-02-25 16:01:00,64.0,35.0,30.07,SW,223,0.0,4.0,34,0.00,,,0.00,,2013-02-26 00:01:00,
2013-02-25 16:11:00,64.0,35.0,30.07,SW,223,0.0,4.0,34,0.00,,,0.00,,2013-02-26 00:11:00,
2013-02-25 16:21:00,62.0,35.0,30.06,SSW,213,0.0,2.0,36,0.00,,,0.00,,2013-02-26 00:21:00,
2013-02-25 16:32:00,61.0,35.0,30.06,SSW,213,0.0,1.0,37,0.00,,,0.00,,2013-02-26 00:32:00,
2013-02-25 16:41:00,61.0,35.0,30.06,SSW,213,0.0,1.0,37,0.00,,,0.00,,2013-02-26 00:41:00,
2013-02-25 16:52:00,61.0,36.0,30.05,SSW,211,0.0,3.0,39,0.00,,,0.00,,2013-02-26 00:52:00,
2013-02-25 17:01:00,60.0,37.0,30.04,SSW,211,0.0,2.0,43,0.00,,,0.00,,2013-02-26 01:01:00,
2013-02-25 17:11:00,60.0,37.0,30.04,SSW,211,0.0,2.0,43,0.00,,,0.00,,2013-02-26 01:11:00,
2013-02-25 17:21:00,59.0,39.0,30.04,SSW,211,0.0,3.0,48,0.00,,,0.00,,2013-02-26 01:21:00,
2013-02-25 17:31:00,59.0,41.0,30.04,SSW,211,0.0,3.0,51,0.00,,,0.00,,2013-02-26 01:31:00,
2013-02-25 17:41:00,59.0,41.0,30.04,SSW,211,0.0,3.0,51,0.00,,,0.00,,2013-02-26 01:41:00,
2013-02-25 17:52:00,57.0,41.0,30.04,SSW,211,0.0,0.0,54,0.00,,,0.00,,2013-02-26 01:52:00,
2013-02-25 18:01:00,56.0,41.0,30.03,SSW,211,0.0,0.0,58,0.00,,,0.00,,2013-02-26 02:01:00,
2013-02-25 18:11:00,56.0,41.0,30.03,SSW,211,0.0,0.0,58,0.00,,,0.00,,2013-02-26 02:11:00,
2013-02-25 18:21:00,53.0,42.0,30.04,SSW,211,0.0,0.0,65,0.00,,,0.00,,2013-02-26 02:21:00,
2013-02-25 18:31:00,52.0,42.0,30.04,SSW,211,0.0,0.0,68,0.00,,,0.00,,2013-02-26 02:31:00,
2013-02-25 18:41:00,52.0,42.0,30.04,SSW,211,0.0,0.0,68,0.00,,,0.00,,2013-02-26 02:41:00,
2013-02-25 18:52:00,51.0,43.0,30.04,SSW,212,0.0,1.0,74,0.00,,,0.00,,2013-02-26 02:52:00,
2013-02-25 19:01:00,51.0,41.0,30.05,SSW,211,0.0,1.0,68,0.00,,,0.00,,2013-02-26 03:01:00,
2013-02-25 19:11:00,51.0,41.0,30.05,SSW,211,0.0,1.0,68,0.00,,,0.00,,2013-02-26 03:11:00,
2013-02-25 19:21:00,49.0,41.0,30.05,SSW,212,0.0,0.0,74,0.00,,,0.00,,2013-02-26 03:21:00,
2013-02-25 19:31:00,49.0,41.0,30.05,SSW,212,0.0,1.0,73,0.00,,,0.00,,2013-02-26 03:31:00,
2013-02-25 19:41:00,49.0,41.0,30.05,SSW,212,0.0,1.0,73,0.00,,,0.00,,2013-02-26 03:41:00,
2013-02-25 19:52:00,49.0,41.0,30.05,SW,214,0.0,3.0,74,0.00,,,0.00,,2013-02-26 03:52:00,
2013-02-25 20:01:00,48.0,41.0,30.05,SSW,211,0.0,3.0,77,0.00,,,0.00,,2013-02-26 04:01:00,
2013-02-25 20:11:00,48.0,41.0,30.05,SSW,211,0.0,3.0,77,0.00,,,0.00,,2013-02-26 04:11:00,
2013-02-25 20:21:00,48.0,40.0,30.05,SSW,208,0.0,0.0,75,0.00,,,0.00,,2013-02-26 04:21:00,
2013-02-25 20:31:00,47.0,40.0,30.06,SSW,208,0.0,0.0,77,0.00,,,0.00,,2013-02-26 04:31:00,
2013-02-25 20:42:00,47.0,40.0,30.06,SSW,208,0.0,0.0,77,0.00,,,0.00,,2013-02-26 04:42:00,
2013-02-25 20:52:00,47.0,42.0,30.06,SSW,207,0.0,0.0,82,0.00,,,0.00,,2013-02-26 04:52:00,
2013-02-25 21:01:00,47.0,42.0,30.06,SSW,208,0.0,0.0,83,0.00,,,0.00,,2013-02-26 05:01:00,
2013-02-25 21:11:00,46.0,42.0,30.06,SSW,207,0.0,0.0,87,0.00,,,0.00,,2013-02-26 05:11:00,
2013-02-25 21:21:00,46.0,42.0,30.06,SSW,207,0.0,0.0,87,0.00,,,0.00,,2013-02-26 05:21:00,
2013-02-25 21:31:00,45.0,37.0,30.06,SSW,205,0.0,3.0,72,0.00,,,0.00,,2013-02-26 05:31:00,
2013-02-25 21:42:00,45.0,37.0,30.06,SSW,205,0.0,3.0,72,0.00,,,0.00,,2013-02-26 05:42:00,
2013-02-25 21:52:00,44.0,38.0,30.06,SSW,205,0.0,0.0,79,0.00,,,0.00,,2013-02-26 05:52:00,
2013-02-25 22:01:00,44.0,39.0,30.07,SSW,205,0.0,0.0,82,0.00,,,0.00,,2013-02-26 06:01:00,
2013-02-25 22:11:00,44.0,39.0,30.07,SSW,205,0.0,0.0,82,0.00,,,0.00,,2013-02-26 06:11:00,
2013-02-25 22:21:00,45.0,38.0,30.07,SSW,205,2.0,4.0,77,0.00,,,0.00,,2013-02-26 06:21:00,
2013-02-25 22:31:00,45.0,38.0,30.07,SSW,199,2.0,4.0,76,0.00,,,0.00,,2013-02-26 06:31:00,
2013-02-25 22:41:00,45.0,38.0,30.07,SSW,199,2.0,4.0,76,0.00,,,0.00,,2013-02-26 06:41:00,
2013-02-25 22:52:00,45.0,37.0,30.07,NE,56,0.0,4.0,73,0.00,,,0.00,,2013-02-26 06:52:00,
2013-02-25 23:01:00,45.0,37.0,30.07,NE,56,0.0,3.0,72,0.00,,,0.00,,2013-02-26 07:01:00,
2013-02-25 23:11:00,45.0,37.0,30.07,NE,56,0.0,3.0,72,0.00,,,0.00,,2013-02-26 07:11:00,
2013-02-25 23:21:00,45.0,35.0,30.06,NE,56,0.0,1.0,69,0.00,,,0.00,,2013-02-26 07:21:00,
2013-02-25 23:31:00,44.0,36.0,30.06,NE,56,0.0,0.0,74,0.00,,,0.00,,2013-02-26 07:31:00,
2013-02-25 23:41:00,44.0,36.0,30.06,NE,56,0.0,0.0,74,0.00,,,0.00,,2013-02-26 07:41:00,
2013-02-25 23:52:00,43.0,35.0,30.06,NE,56,0.0,2.0,73,0.00,,,0.00,,2013-02-26 07:52:00,